Preview of NWS' New Version of Forecast
This preview is not operational and should not be used for support decisions.

Regional Weather Roundup (RWR)

Issued by National Weather Service (NWS)

                            
000
ASUS43 KBIS 202010
RWRND 

NORTH DAKOTA REGIONAL WEATHER ROUNDUP
NATIONAL WEATHER SERVICE BISMARCK ND
200 PM CST WED FEB 20 2019

NOTE: "FAIR" INDICATES FEW OR NO CLOUDS BELOW 12,000 FEET WITH NO
SIGNIFICANT WEATHER AND/OR OBSTRUCTIONS TO VISIBILITY.


NDZ001>003-009>011-017-202100-
NORTHWEST NORTH DAKOTA
  
CITY           SKY/WX    TMP DP  RH WIND       PRES   REMARKS
WILLISTON      CLOUDY    12   3  67 W5        29.68F WCI   4          
MINOT          LGT SNOW  14   6  70 N3        29.68F                  
$$
 
NDZ018>021-031>035-040>046-202100-
SOUTHWEST NORTH DAKOTA
  
CITY           SKY/WX    TMP DP  RH WIND       PRES   REMARKS
BISMARCK       LGT SNOW  17  10  74 N8        29.65F WCI   7          
DICKINSON      LGT SNOW   8   2  76 W6        29.58F WCI  -2          
GARRISON         N/A     12   7  80 N6        29.65F WCI   3          
HETTINGER ARPT LGT SNOW  11   5  77 W9        29.59F WCI  -2          
$$
 
NDZ004>008-012>016-024-026-027-054-202100-
NORTHEAST NORTH DAKOTA
  
CITY           SKY/WX    TMP DP  RH WIND       PRES   REMARKS
GRAND FORKS    LGT SNOW  18  14  84 NE17      29.68F VSB 3/4 WCI   3  
GRND FRKS AFB  LGT SNOW  20  16  85 NE13      29.68F WCI   7          
DEVILS LAKE    LGT SNOW  13  10  88 NE10      29.68F FOG     WCI   0  
$$
 
NDZ022-023-025-028>030-036>039-047>053-202100-
SOUTHEAST NORTH DAKOTA
  
CITY           SKY/WX    TMP DP  RH WIND       PRES   REMARKS
FARGO          SNOW      20  17  88 NE13      29.62F VSB 1/2 WCI   7  
JAMESTOWN      LGT SNOW  15  12  88 N12       29.60F VSB 1   WCI   2  
$$